Weather History for Gunnison, CO

Change the Weather History Date:

Sunday, February 17, 2013

  Actual Average Record
Temperature  
Mean Temperature 8 °F -  
Max Temperature 24 °F 29 °F 42 °F (2007)
Min Temperature -7 °F 5 °F -9 °F (2001)
Degree Days  
Heating Degree Days 56    
Moisture  
Dew Point 0 °F    
Average Humidity 72    
Maximum Humidity 100    
Minimum Humidity 46    
Precipitation  
Precipitation 0.00 in - - ()
Sea Level Pressure  
Sea Level Pressure 29.98 in    
Wind  
Wind Speed 2 mph (ENE)    
Max Wind Speed 8 mph    
Max Gust Speed -    
Visibility 10 miles    
Events      
Averages and records for this station are not official NWS values.
T = Trace of Precipitation, MM = Missing Value Source: NWS Daily Summary

Daily Weather History Graph

Daily Weather History Graph

Search for Another Location

Airport:

Trip Planner

Search our weather history database for the weather conditions in past years. The results will help you decide how hot, cold, wet, or windy it might be!

Date:

Astronomy

Feb. 17, 2013 Rise Set
Actual Time 6:55 AM MST 5:48 PM MST
Civil Twilight 6:28 AM MST 6:15 PM MST
Nautical Twilight 5:57 AM MST 6:46 PM MST
Astronomical Twilight 5:26 AM MST 7:17 PM MST
Moon 10:56 AM MST (2/17) 12:41 AM MST (2/17)
Length of Visible Light 11h 46m
Length of Day
10h 52m
Waxing Crescent, 49% of the Moon is Illuminated
Feb 17
Waxing Crescent
Feb 17
First Quarter
Feb 25
Full
Mar 4
Last Quarter
Mar 11
New

Hourly Weather History & Observations

Time (MST) Temp. Windchill Dew Point Humidity Pressure Visibility Wind Dir Wind Speed Gust Speed Precip Events Conditions
12:15 AM 3.2 °F -6.2 °F -4.0 °F 72% 30.24 in 10.0 mi ENE 4.6 mph - N/A   Clear
12:35 AM -0.4 °F - -7.6 °F 72% 30.23 in 10.0 mi Calm Calm - N/A   Clear
12:55 AM 1.4 °F - -0.4 °F 92% 30.23 in 10.0 mi Calm Calm - N/A   Clear
1:15 AM 3.2 °F - -5.8 °F 66% 30.23 in 10.0 mi Calm Calm - N/A   Clear
1:35 AM 1.4 °F - 1.4 °F 100% 30.22 in 10.0 mi Calm Calm - N/A   Clear
1:55 AM -0.4 °F -8.3 °F -11.2 °F 60% 30.22 in 10.0 mi NE 3.5 mph - N/A   Clear
2:35 AM -0.4 °F - -5.8 °F 78% 30.22 in 10.0 mi Calm Calm - N/A   Clear
2:55 AM -2.2 °F - -7.6 °F 78% 30.21 in 10.0 mi Calm Calm - N/A   Clear
3:15 AM -0.4 °F -8.3 °F -2.2 °F 92% 30.20 in 10.0 mi NE 3.5 mph - N/A   Clear
3:35 AM -5.8 °F -16.7 °F -14.8 °F 65% 30.20 in 10.0 mi NE 4.6 mph - N/A   Clear
3:55 AM -4.0 °F -12.4 °F -4.0 °F 100% 30.19 in 10.0 mi ENE 3.5 mph - N/A   Clear
4:15 AM -2.2 °F - -9.4 °F 71% 30.18 in 10.0 mi Calm Calm - N/A   Clear
4:35 AM -2.2 °F - -2.2 °F 100% 30.17 in 10.0 mi Calm Calm - N/A   Clear
4:55 AM -7.6 °F - -18.4 °F 59% 30.17 in 10.0 mi Calm Calm - N/A   Clear
5:15 AM -5.8 °F - -9.4 °F 84% 30.16 in 10.0 mi Calm Calm - N/A   Clear
5:35 AM -5.8 °F - -5.8 °F 100% 30.16 in 10.0 mi Calm Calm - N/A   Clear
5:55 AM -5.8 °F - -16.6 °F 60% 30.15 in 10.0 mi Calm Calm - N/A   Clear
6:15 AM -7.6 °F - -7.6 °F 100% 30.15 in 10.0 mi Calm Calm - N/A   Clear
6:35 AM -5.8 °F - -7.6 °F 92% 30.14 in 10.0 mi Calm Calm - N/A   Clear
6:55 AM -7.6 °F - -16.6 °F 65% 30.14 in 10.0 mi Calm Calm - N/A   Clear
7:15 AM -5.8 °F - -5.8 °F 100% 30.13 in 10.0 mi Calm Calm - N/A   Clear
7:35 AM -5.8 °F - -16.6 °F 60% 30.13 in 10.0 mi Calm Calm - N/A   Clear
7:55 AM -5.8 °F - -5.8 °F 100% 30.13 in 10.0 mi Calm Calm - N/A   Clear
8:15 AM -4.0 °F - -11.2 °F 71% 30.13 in 10.0 mi Calm Calm - N/A   Clear
8:35 AM -5.8 °F - -5.8 °F 100% 30.12 in 10.0 mi Calm Calm - N/A   Clear
8:55 AM -2.2 °F - - N/A% 30.12 in 10.0 mi Calm Calm - N/A   Clear
9:15 AM -0.4 °F - -0.4 °F 100% 30.10 in 10.0 mi Calm Calm - N/A   Clear
9:35 AM -0.4 °F -8.3 °F -11.2 °F 60% 30.09 in 10.0 mi ENE 3.5 mph - N/A   Clear
9:55 AM 1.4 °F - 1.4 °F 100% 30.08 in 10.0 mi Calm Calm - N/A   Clear
10:15 AM 3.2 °F - -5.8 °F 66% 30.07 in 10.0 mi Calm Calm - N/A   Clear
10:35 AM 6.8 °F - -0.4 °F 72% 30.05 in 10.0 mi Calm Calm - N/A   Clear
10:55 AM 8.6 °F - 5.0 °F 85% 30.04 in 10.0 mi Calm Calm - N/A   Clear
11:15 AM 10.4 °F - -0.4 °F 62% 30.02 in 10.0 mi Calm Calm - N/A   Clear
11:35 AM 12.2 °F - 6.8 °F 79% 30.00 in 10.0 mi Calm Calm - N/A   Clear
12:15 PM 15.8 °F 10.2 °F 6.8 °F 68% 29.96 in 10.0 mi East 3.5 mph - N/A   Partly Cloudy
12:35 PM 15.8 °F 8.6 °F 3.2 °F 58% 29.93 in 10.0 mi East 4.6 mph - N/A   Partly Cloudy
12:55 PM 17.6 °F 10.7 °F 6.8 °F 63% 29.92 in 10.0 mi East 4.6 mph - N/A   Partly Cloudy
1:35 PM 17.6 °F - 3.2 °F 53% 29.88 in 10.0 mi Calm Calm - N/A   Partly Cloudy
1:55 PM 19.4 °F - 6.8 °F 58% 29.86 in 10.0 mi Calm Calm - N/A   Partly Cloudy
2:15 PM 19.4 °F - 8.6 °F 63% 29.85 in 10.0 mi Calm Calm - N/A   Clear
2:35 PM 19.4 °F 14.3 °F 5.0 °F 54% 29.83 in 10.0 mi SSE 3.5 mph - N/A   Clear
2:55 PM 21.2 °F - 8.6 °F 58% 29.82 in 10.0 mi Calm Calm - N/A   Clear
3:35 PM 21.2 °F - 6.8 °F 54% 29.80 in 10.0 mi Calm Calm - N/A   Clear
3:55 PM 21.2 °F - 6.8 °F 54% 29.80 in 10.0 mi Calm Calm - N/A   Clear
4:15 PM 23.0 °F 17.0 °F 6.8 °F 50% 29.79 in 10.0 mi North 4.6 mph - N/A   Clear
4:35 PM 23.0 °F 17.0 °F 8.6 °F 54% 29.78 in 10.0 mi NNE 4.6 mph - N/A   Clear
4:55 PM 24.8 °F 20.5 °F 6.8 °F 46% 29.78 in 10.0 mi NNE 3.5 mph - N/A   Clear
5:15 PM 21.2 °F - 6.8 °F 54% 29.78 in 10.0 mi Calm Calm - N/A   Clear
5:35 PM 21.2 °F - 8.6 °F 58% 29.78 in 10.0 mi Calm Calm - N/A   Clear
5:55 PM 17.6 °F 10.7 °F 5.0 °F 58% 29.78 in 10.0 mi South 4.6 mph - N/A   Clear
6:15 PM 15.8 °F - 6.8 °F 68% 29.78 in 10.0 mi Calm Calm - N/A   Clear
6:35 PM 15.8 °F - 3.2 °F 58% 29.78 in 10.0 mi Calm Calm - N/A   Clear
6:55 PM 12.2 °F 2.9 °F 1.4 °F 62% 29.78 in 10.0 mi ENE 5.8 mph - N/A   Clear
7:15 PM 14.0 °F 3.9 °F 10.4 °F 86% 29.78 in 10.0 mi North 6.9 mph - N/A   Clear
7:35 PM 14.0 °F - -2.2 °F 49% 29.78 in 10.0 mi Calm Calm - N/A   Clear
7:55 PM 8.6 °F 0.1 °F -0.4 °F 67% 29.78 in 10.0 mi SE 4.6 mph - N/A   Mostly Cloudy
8:15 PM 10.4 °F - 8.6 °F 92% 29.78 in 10.0 mi Calm Calm - N/A   Overcast
8:35 PM 12.2 °F - 1.4 °F 62% 29.78 in 10.0 mi Calm Calm - N/A   Mostly Cloudy
8:55 PM 14.0 °F 2.9 °F 6.8 °F 73% 29.79 in 10.0 mi ENE 8.1 mph - N/A   Mostly Cloudy
9:15 PM 15.8 °F - 10.4 °F 79% 29.79 in 10.0 mi Calm Calm - N/A   Mostly Cloudy
9:35 PM 15.8 °F - 3.2 °F 58% 29.80 in 10.0 mi Calm Calm - N/A   Overcast
10:15 PM 19.4 °F - 12.2 °F 74% 29.79 in 10.0 mi Calm Calm - N/A   Partly Cloudy
10:35 PM 17.6 °F 9.3 °F 10.4 °F 73% 29.79 in 10.0 mi ENE 5.8 mph - N/A   Clear
10:55 PM 17.6 °F - 6.8 °F 63% 29.80 in 10.0 mi Calm Calm - N/A   Mostly Cloudy
11:15 PM 17.6 °F 10.7 °F 6.8 °F 63% 29.80 in 10.0 mi East 4.6 mph - N/A   Mostly Cloudy
11:35 PM 17.6 °F 12.3 °F 15.8 °F 93% 29.80 in 10.0 mi East 3.5 mph - N/A   Overcast